Time,TemperatureF,DewpointF,PressureIn,WindDirection,WindDirectionDegrees,WindSpeedMPH,WindSpeedGustMPH,Humidity,HourlyPrecipIn,Conditions,Clouds,dailyrainin,SoftwareType,DateUTC
2013-10-05 00:02:00,61.2,29.0,30.08,SE,126,0.0,-999.0,30,-99.99,,,0.00,weatherlink.com 1.10,2013-10-05 07:02:00,
2013-10-05 00:18:00,60.2,30.0,30.09,SE,126,0.0,-999.0,32,-99.99,,,0.00,weatherlink.com 1.10,2013-10-05 07:18:00,
2013-10-05 00:33:00,59.2,33.0,30.09,SE,126,0.0,-999.0,37,-99.99,,,0.00,weatherlink.com 1.10,2013-10-05 07:33:00,
2013-10-05 00:48:00,58.1,32.0,30.09,SE,126,0.0,-999.0,37,-99.99,,,0.00,weatherlink.com 1.10,2013-10-05 07:48:00,
2013-10-05 01:03:00,57.5,30.0,30.10,SE,126,0.0,-999.0,35,-99.99,,,0.00,weatherlink.com 1.10,2013-10-05 08:03:00,
2013-10-05 01:18:00,58.0,32.0,30.10,East,84,0.0,-999.0,37,-99.99,,,0.00,weatherlink.com 1.10,2013-10-05 08:18:00,
2013-10-05 01:33:00,58.3,31.0,30.10,East,84,0.0,-999.0,35,-99.99,,,0.00,weatherlink.com 1.10,2013-10-05 08:33:00,
2013-10-05 01:48:00,58.0,32.0,30.10,East,84,0.0,-999.0,37,-99.99,,,0.00,weatherlink.com 1.10,2013-10-05 08:48:00,
2013-10-05 02:03:00,57.5,31.0,30.10,East,84,0.0,-999.0,36,-99.99,,,0.00,weatherlink.com 1.10,2013-10-05 09:03:00,
2013-10-05 02:18:00,57.3,30.0,30.10,East,84,0.0,-999.0,35,-99.99,,,0.00,weatherlink.com 1.10,2013-10-05 09:18:00,
2013-10-05 02:33:00,57.8,29.0,30.10,East,84,0.0,-999.0,33,-99.99,,,0.00,weatherlink.com 1.10,2013-10-05 09:33:00,
2013-10-05 02:48:00,58.3,28.0,30.10,East,85,0.0,-999.0,31,-99.99,,,0.00,weatherlink.com 1.10,2013-10-05 09:48:00,
2013-10-05 03:03:00,62.0,21.0,30.09,ENE,63,0.0,-999.0,21,-99.99,,,0.00,weatherlink.com 1.10,2013-10-05 10:03:00,
2013-10-05 03:18:00,67.6,21.0,30.09,East,94,0.0,-999.0,17,-99.99,,,0.00,weatherlink.com 1.10,2013-10-05 10:18:00,
2013-10-05 03:33:00,69.1,21.0,30.09,SSE,156,3.0,-999.0,16,-99.99,,,0.00,weatherlink.com 1.10,2013-10-05 10:33:00,
2013-10-05 03:48:00,69.3,21.0,30.10,ESE,112,0.0,-999.0,16,-99.99,,,0.00,weatherlink.com 1.10,2013-10-05 10:48:00,
2013-10-05 04:03:00,68.6,22.0,30.10,South,183,0.0,-999.0,17,-99.99,,,0.00,weatherlink.com 1.10,2013-10-05 11:03:00,
2013-10-05 04:18:00,68.6,21.0,30.10,NW,316,2.0,-999.0,16,-99.99,,,0.00,weatherlink.com 1.10,2013-10-05 11:18:00,
2013-10-05 04:33:00,69.3,20.0,30.10,NE,50,0.0,-999.0,15,-99.99,,,0.00,weatherlink.com 1.10,2013-10-05 11:33:00,
2013-10-05 04:48:00,69.1,19.0,30.11,SSE,167,0.0,-999.0,15,-99.99,,,0.00,weatherlink.com 1.10,2013-10-05 11:48:00,
2013-10-05 05:03:00,68.8,19.0,30.11,ENE,71,0.0,-999.0,15,-99.99,,,0.00,weatherlink.com 1.10,2013-10-05 12:03:00,
2013-10-05 05:18:00,68.6,21.0,30.11,ENE,65,0.0,-999.0,16,-99.99,,,0.00,weatherlink.com 1.10,2013-10-05 12:18:00,
2013-10-05 05:33:00,68.3,20.0,30.11,SSE,163,5.0,-999.0,16,-99.99,,,0.00,weatherlink.com 1.10,2013-10-05 12:33:00,
2013-10-05 05:48:00,68.3,20.0,30.11,North,351,4.0,-999.0,16,-99.99,,,0.00,weatherlink.com 1.10,2013-10-05 12:48:00,
2013-10-05 06:03:00,67.9,20.0,30.11,NE,36,4.0,-999.0,16,-99.99,,,0.00,weatherlink.com 1.10,2013-10-05 13:03:00,
2013-10-05 06:18:00,67.9,20.0,30.12,West,266,2.0,-999.0,16,-99.99,,,0.00,weatherlink.com 1.10,2013-10-05 13:18:00,
2013-10-05 06:33:00,67.9,20.0,30.12,SE,134,4.0,-999.0,16,-99.99,,,0.00,weatherlink.com 1.10,2013-10-05 13:33:00,
2013-10-05 06:48:00,67.8,20.0,30.12,East,79,5.0,-999.0,16,-99.99,,,0.00,weatherlink.com 1.10,2013-10-05 13:48:00,
2013-10-05 07:03:00,67.4,20.0,30.13,ENE,61,0.0,-999.0,16,-99.99,,,0.00,weatherlink.com 1.10,2013-10-05 14:03:00,
2013-10-05 07:18:00,67.3,21.0,30.13,ENE,76,2.0,-999.0,17,-99.99,,,0.00,weatherlink.com 1.10,2013-10-05 14:18:00,
2013-10-05 07:33:00,66.9,21.0,30.13,East,87,1.0,-999.0,17,-99.99,,,0.00,weatherlink.com 1.10,2013-10-05 14:33:00,
2013-10-05 07:48:00,67.1,21.0,30.14,SE,137,5.0,-999.0,17,-99.99,,,0.00,weatherlink.com 1.10,2013-10-05 14:48:00,
2013-10-05 08:03:00,67.4,21.0,30.14,NNE,33,2.0,-999.0,17,-99.99,,,0.00,weatherlink.com 1.10,2013-10-05 15:03:00,
2013-10-05 08:18:00,68.4,20.0,30.14,ENE,78,2.0,-999.0,16,-99.99,,,0.00,weatherlink.com 1.10,2013-10-05 15:18:00,
2013-10-05 08:33:00,69.6,21.0,30.15,ESE,103,3.0,-999.0,16,-99.99,,,0.00,weatherlink.com 1.10,2013-10-05 15:33:00,
2013-10-05 08:48:00,70.6,22.0,30.15,SE,146,2.0,-999.0,16,-99.99,,,0.00,weatherlink.com 1.10,2013-10-05 15:48:00,
2013-10-05 09:03:00,71.3,21.0,30.16,NE,40,5.0,-999.0,15,-99.99,,,0.00,weatherlink.com 1.10,2013-10-05 16:03:00,
2013-10-05 09:18:00,72.0,22.0,30.16,NE,38,4.0,-999.0,15,-99.99,,,0.00,weatherlink.com 1.10,2013-10-05 16:18:00,
2013-10-05 09:33:00,72.7,22.0,30.16,SE,128,1.0,-999.0,15,-99.99,,,0.00,weatherlink.com 1.10,2013-10-05 16:33:00,
2013-10-05 09:48:00,73.3,21.0,30.17,ENE,63,1.0,-999.0,14,-99.99,,,0.00,weatherlink.com 1.10,2013-10-05 16:48:00,
2013-10-05 10:03:00,74.2,24.0,30.17,East,88,2.0,-999.0,15,-99.99,,,0.00,weatherlink.com 1.10,2013-10-05 17:03:00,
2013-10-05 10:18:00,74.9,22.0,30.17,East,101,5.0,-999.0,14,-99.99,,,0.00,weatherlink.com 1.10,2013-10-05 17:18:00,
2013-10-05 10:33:00,75.6,23.0,30.17,ENE,71,0.0,-999.0,14,-99.99,,,0.00,weatherlink.com 1.10,2013-10-05 17:33:00,
2013-10-05 10:48:00,76.3,24.0,30.17,East,88,3.0,-999.0,14,-99.99,,,0.00,weatherlink.com 1.10,2013-10-05 17:48:00,
2013-10-05 11:03:00,77.4,23.0,30.18,ENE,74,7.0,-999.0,13,-99.99,,,0.00,weatherlink.com 1.10,2013-10-05 18:03:00,
2013-10-05 11:18:00,78.3,25.0,30.17,NW,306,0.0,-999.0,14,-99.99,,,0.00,weatherlink.com 1.10,2013-10-05 18:18:00,
2013-10-05 11:34:00,79.0,28.0,30.17,ESE,115,0.0,-999.0,15,-99.99,,,0.00,weatherlink.com 1.10,2013-10-05 18:34:00,
2013-10-05 11:49:00,79.8,25.0,30.17,ESE,103,0.0,-999.0,13,-99.99,,,0.00,weatherlink.com 1.10,2013-10-05 18:49:00,
2013-10-05 12:04:00,80.7,27.0,30.16,East,84,0.0,-999.0,14,-99.99,,,0.00,weatherlink.com 1.10,2013-10-05 19:04:00,
2013-10-05 12:19:00,81.8,24.0,30.16,ESE,107,2.0,-999.0,12,-99.99,,,0.00,weatherlink.com 1.10,2013-10-05 19:19:00,
2013-10-05 12:34:00,83.0,27.0,30.16,WNW,300,1.0,-999.0,13,-99.99,,,0.00,weatherlink.com 1.10,2013-10-05 19:34:00,
2013-10-05 12:49:00,84.3,26.0,30.16,East,95,0.0,-999.0,12,-99.99,,,0.00,weatherlink.com 1.10,2013-10-05 19:49:00,
2013-10-05 13:05:00,84.0,30.0,30.15,West,275,2.0,-999.0,14,-99.99,,,0.00,weatherlink.com 1.10,2013-10-05 20:05:00,
2013-10-05 13:19:00,83.8,26.0,30.15,ESE,117,1.0,-999.0,12,-99.99,,,0.00,weatherlink.com 1.10,2013-10-05 20:19:00,
2013-10-05 13:34:00,84.9,27.0,30.14,WNW,291,0.0,-999.0,12,-99.99,,,0.00,weatherlink.com 1.10,2013-10-05 20:34:00,
2013-10-05 13:49:00,84.9,29.0,30.13,West,273,1.0,-999.0,13,-99.99,,,0.00,weatherlink.com 1.10,2013-10-05 20:49:00,
2013-10-05 14:04:00,84.9,27.0,30.13,ESE,110,0.0,-999.0,12,-99.99,,,0.00,weatherlink.com 1.10,2013-10-05 21:04:00,
2013-10-05 14:19:00,86.3,30.0,30.13,SW,221,1.0,-999.0,13,-99.99,,,0.00,weatherlink.com 1.10,2013-10-05 21:19:00,
2013-10-05 14:34:00,87.0,32.0,30.13,East,100,1.0,-999.0,14,-99.99,,,0.00,weatherlink.com 1.10,2013-10-05 21:34:00,
2013-10-05 14:49:00,86.7,28.0,30.12,WNW,286,0.0,-999.0,12,-99.99,,,0.00,weatherlink.com 1.10,2013-10-05 21:49:00,
2013-10-05 15:04:00,86.7,32.0,30.12,WSW,251,0.0,-999.0,14,-99.99,,,0.00,weatherlink.com 1.10,2013-10-05 22:04:00,
2013-10-05 15:19:00,86.1,28.0,30.12,WSW,250,0.0,-999.0,12,-99.99,,,0.00,weatherlink.com 1.10,2013-10-05 22:19:00,
2013-10-05 15:34:00,86.1,28.0,30.12,SSW,213,1.0,-999.0,12,-99.99,,,0.00,weatherlink.com 1.10,2013-10-05 22:34:00,
2013-10-05 15:49:00,85.7,29.0,30.11,WSW,250,0.0,-999.0,13,-99.99,,,0.00,weatherlink.com 1.10,2013-10-05 22:49:00,
2013-10-05 16:05:00,87.0,29.0,30.11,West,259,0.0,-999.0,12,-99.99,,,0.00,weatherlink.com 1.10,2013-10-05 23:05:00,
2013-10-05 16:20:00,87.6,27.0,30.11,WSW,251,1.0,-999.0,11,-99.99,,,0.00,weatherlink.com 1.10,2013-10-05 23:20:00,
2013-10-05 16:35:00,87.0,26.0,30.11,WNW,285,0.0,-999.0,11,-99.99,,,0.00,weatherlink.com 1.10,2013-10-05 23:35:00,
2013-10-05 16:50:00,86.5,28.0,30.11,WSW,252,0.0,-999.0,12,-99.99,,,0.00,weatherlink.com 1.10,2013-10-05 23:50:00,
2013-10-05 17:05:00,86.7,28.0,30.11,NW,309,0.0,-999.0,12,-99.99,,,0.00,weatherlink.com 1.10,2013-10-06 00:05:00,
2013-10-05 17:20:00,87.0,29.0,30.10,NW,309,0.0,-999.0,12,-99.99,,,0.00,weatherlink.com 1.10,2013-10-06 00:20:00,
2013-10-05 17:35:00,85.9,30.0,30.10,NW,309,0.0,-999.0,13,-99.99,,,0.00,weatherlink.com 1.10,2013-10-06 00:35:00,
2013-10-05 17:50:00,83.6,30.0,30.10,NW,309,0.0,-999.0,14,-99.99,,,0.00,weatherlink.com 1.10,2013-10-06 00:50:00,
2013-10-05 18:05:00,81.6,30.0,30.10,South,184,0.0,-999.0,15,-99.99,,,0.00,weatherlink.com 1.10,2013-10-06 01:05:00,
2013-10-05 18:20:00,80.1,33.0,30.10,South,184,0.0,-999.0,18,-99.99,,,0.00,weatherlink.com 1.10,2013-10-06 01:20:00,
2013-10-05 18:35:00,78.3,36.0,30.10,South,184,0.0,-999.0,22,-99.99,,,0.00,weatherlink.com 1.10,2013-10-06 01:35:00,
2013-10-05 18:50:00,76.3,36.0,30.10,South,184,0.0,-999.0,23,-99.99,,,0.00,weatherlink.com 1.10,2013-10-06 01:50:00,
2013-10-05 19:05:00,74.2,33.0,30.10,South,184,0.0,-999.0,22,-99.99,,,0.00,weatherlink.com 1.10,2013-10-06 02:05:00,
2013-10-05 19:20:00,72.7,32.0,30.10,South,184,0.0,-999.0,22,-99.99,,,0.00,weatherlink.com 1.10,2013-10-06 02:20:00,
2013-10-05 19:35:00,71.3,32.0,30.10,South,184,0.0,-999.0,23,-99.99,,,0.00,weatherlink.com 1.10,2013-10-06 02:35:00,
2013-10-05 19:50:00,69.9,33.0,30.10,South,184,0.0,-999.0,26,-99.99,,,0.00,weatherlink.com 1.10,2013-10-06 02:50:00,
2013-10-05 20:05:00,68.6,34.0,30.10,South,184,0.0,-999.0,28,-99.99,,,0.00,weatherlink.com 1.10,2013-10-06 03:05:00,
2013-10-05 20:20:00,67.3,35.0,30.10,South,184,0.0,-999.0,30,-99.99,,,0.00,weatherlink.com 1.10,2013-10-06 03:20:00,
2013-10-05 20:35:00,66.1,34.0,30.10,South,184,0.0,-999.0,31,-99.99,,,0.00,weatherlink.com 1.10,2013-10-06 03:35:00,
2013-10-05 20:50:00,65.2,37.0,30.11,South,184,0.0,-999.0,36,-99.99,,,0.00,weatherlink.com 1.10,2013-10-06 03:50:00,
2013-10-05 21:05:00,64.8,36.0,30.11,South,184,0.0,-999.0,35,-99.99,,,0.00,weatherlink.com 1.10,2013-10-06 04:05:00,
2013-10-05 21:20:00,64.0,38.0,30.11,South,184,0.0,-999.0,38,-99.99,,,0.00,weatherlink.com 1.10,2013-10-06 04:20:00,
2013-10-05 21:35:00,63.5,37.0,30.11,South,184,0.0,-999.0,38,-99.99,,,0.00,weatherlink.com 1.10,2013-10-06 04:35:00,
2013-10-05 21:50:00,63.2,35.0,30.11,South,184,0.0,-999.0,35,-99.99,,,0.00,weatherlink.com 1.10,2013-10-06 04:50:00,
2013-10-05 22:05:00,63.2,33.0,30.11,South,184,0.0,-999.0,33,-99.99,,,0.00,weatherlink.com 1.10,2013-10-06 05:05:00,
2013-10-05 22:20:00,62.9,33.0,30.11,South,184,0.0,-999.0,33,-99.99,,,0.00,weatherlink.com 1.10,2013-10-06 05:20:00,
2013-10-05 22:35:00,62.4,36.0,30.11,South,184,0.0,-999.0,37,-99.99,,,0.00,weatherlink.com 1.10,2013-10-06 05:35:00,
2013-10-05 22:50:00,61.6,34.0,30.11,South,184,0.0,-999.0,35,-99.99,,,0.00,weatherlink.com 1.10,2013-10-06 05:50:00,
2013-10-05 23:05:00,61.3,33.0,30.11,South,184,0.0,-999.0,35,-99.99,,,0.00,weatherlink.com 1.10,2013-10-06 06:05:00,
2013-10-05 23:20:00,60.9,34.0,30.11,South,184,0.0,-999.0,36,-99.99,,,0.00,weatherlink.com 1.10,2013-10-06 06:20:00,
2013-10-05 23:35:00,60.7,33.0,30.11,South,184,0.0,-999.0,35,-99.99,,,0.00,weatherlink.com 1.10,2013-10-06 06:35:00,
2013-10-05 23:50:00,61.0,33.0,30.10,South,184,0.0,-999.0,35,-99.99,,,0.00,weatherlink.com 1.10,2013-10-06 06:50:00,